Location: ????????
(54.6123°N, 39.2099°E)
Time: 13:23:01
(UTC+00:00)

CENTAUR R/B - Pass Details

Date: 19 May 2025
Orbit: 644 x 1537 km, 63.4° (Epoch: 19 June)

Event Time Altitude Azimuth Distance (km) Brightness Sun altitude
Rises 21:25:26 0° 311° (NW) 4,080 6.4 -15.4°
Reaches altitude 10° 21:28:00 10° 309° (NW) 3,227 5.7 -15.4°
Maximum altitude 21:35:56 65° 230° (SW) 1,539 3.3 -15.3°
Enters shadow 21:44:29 12° 153° (SSE) 3,498 4.9 -15.2°
